Simultaneous Nadir Overpasses (SNOs) Predictions

Prediction of SNOs between GOES-17 and TERRA Satellite Orbit:

Table of predicted SNOs for the next 14.0 days since TLE Epoch: 1/20/2024
Index Date Time (GOES-17) GOES-17 Lat,Lon TERRA Lat,Lon Distance(km) Time Diff (sec)
1 01/20/2024 16:49:38 -0.00,-104.67 -0.28,-103.24 162.12 80
2 01/21/2024 05:09:49 0.00,-104.67 -0.76,-108.15 396.63 80
3 01/23/2024 04:50:16 0.00,-104.67 0.12,-104.08 66.61 80
4 01/23/2024 17:10:17 -0.00,-104.67 0.90,-108.95 486.54 80
5 01/25/2024 16:53:22 0.00,-104.67 0.06,-104.86 22.49 80
6 01/27/2024 16:39:07 0.01,-104.67 -0.81,-100.78 442.21 80
7 01/28/2024 04:59:19 -0.01,-104.67 -0.20,-105.70 115.78 80
8 01/30/2024 04:39:43 -0.02,-104.68 0.64,-101.61 349.35 80
9 01/30/2024 16:59:44 0.02,-104.68 0.41,-106.47 203.76 80
10 02/01/2024 16:45:28 0.02,-104.69 -0.46,-102.39 261.61 80
11 02/02/2024 05:05:39 -0.02,-104.69 -0.59,-107.29 295.70 80
